Temperature
1 1 1 0 0 0 0 0 0 0 0 0 -0 0 0 0 0 0 0 0 0 0 0 0 0 1 1 1 1 1 0 0 0 0 1 1 1 1 2 2 2 2 2
-0 -0 -0 -0 -0 -0 -0 -0 -0 -0 -1 -1 -1 -1 -1 -1 -1 -0 -0 -0 -0 -0 -0 -0 -0 0 0 0 -0 -0 -0 -0 -0 -0 0 0 1 1 1 1 1 1 1
-1 -1 -1 -1 -1 -1 -1 -1 -1 -1 -1 -1 -2 -2 -2 -2 -1 -1 -1 -1 -1 -1 -1 -1 -1 -1 -1 -1 -1 -1 -1 -1 -1 -1 -1 -1 -0 0 0 0 0 1 1
-1 -1 -1 -1 -1 -1 -1 -2 -2 -2 -2 -2 -2 -2 -2 -2 -2 -2 -2 -2 -2 -2 -1 -1 -1 -1 -1 -1 -1 -1 -1 -1 -1 -2 -1 -1 -1 -1 -1 -0 -0 -0 0
-2 -2 -2 -2 -2 -2 -2 -2 -2 -2 -2 -2 -3 -3 -3 -3 -3 -2 -2 -2 -2 -2 -2 -2 -2 -2 -2 -2 -2 -2 -2 -2 -2 -2 -2 -2 -2 -2 -1 -1 -1 -1 -1
-3 -3 -2 -2 -3 -3 -3 -3 -3 -3 -3 -3 -3 -3 -3 -3 -3 -3 -3 -3 -3 -3 -3 -3 -3 -3 -3 -3 -3 -3 -3 -3 -3 -3 -3 -3 -3 -3 -2 -2 -2 -2 -2
-3 -3 -3 -3 -3 -3 -3 -3 -3 -3 -3 -3 -3 -4 -4 -3 -4 -4 -4 -4 -4 -4 -4 -4 -4 -4 -4 -4 -3 -3 -3 -3 -4 -4 -4 -4 -3 -3 -3 -3 -3 -3 -3
-4 -4 -4 -4 -4 -4 -4 -4 -4 -4 -4 -4 -4 -4 -4 -4 -4 -4 -4 -4 -4 -4 -4 -4 -5 -5 -4 -4 -4 -4 -4 -4 -4 -4 -4 -4 -4 -4 -4 -4 -4 -4 -4
-5 -5 -5 -5 -5 -5 -5 -5 -5 -5 -5 -5 -5 -5 -5 -5 -5 -5 -5 -5 -5 -5 -5 -5 -5 -5 -5 -5 -5 -5 -5 -5 -5 -5 -5 -5 -5 -5 -5 -5 -5 -5 -5
-6 -6 -6 -6 -5 -5 -5 -5 -5 -5 -5 -5 -5 -6 -6 -6 -6 -6 -6 -6 -6 -6 -6 -6 -6 -6 -6 -6 -6 -6 -6 -6 -5 -5 -5 -5 -5 -5 -5 -5 -5 -6 -6
-6 -6 -6 -6 -6 -6 -6 -6 -6 -6 -6 -6 -6 -6 -6 -6 -6 -6 -6 -7 -7 -7 -7 -7 -7 -7 -7 -7 -7 -7 -7 -6 -6 -6 -6 -6 -6 -6 -6 -6 -6 -6 -6
-7 -7 -7 -7 -7 -7 -7 -7 -7 -7 -7 -7 -7 -7 -7 -7 -7 -7 -7 -7 -7 -7 -7 -8 -8 -7 -7 -7 -7 -7 -7 -7 -7 -7 -7 -7 -7 -6 -6 -6 -6 -7 -6
-7 -7 -8 -8 -8 -8 -8 -8 -8 -8 -8 -8 -8 -8 -8 -8 -8 -8 -8 -8 -8 -8 -8 -8 -8 -8 -8 -8 -8 -8 -8 -8 -8 -8 -8 -8 -7 -7 -7 -7 -7 -7 -7
-8 -8 -8 -8 -8 -8 -8 -9 -9 -9 -9 -9 -9 -9 -9 -9 -9 -9 -9 -9 -9 -9 -9 -9 -9 -8 -8 -9 -8 -8 -8 -9 -9 -9 -8 -8 -8 -8 -8 -8 -8 -8 -8
-9 -9 -9 -9 -9 -9 -9 -9 -9 -9 -9 -9 -9 -9 -9 -10 -10 -10 -10 -10 -10 -9 -9 -9 -9 -9 -9 -9 -9 -9 -9 -9 -9 -9 -9 -9 -9 -9 -9 -9 -9 -9 -9
-10 -10 -10 -10 -10 -10 -10 -10 -10 -10 -10 -10 -10 -10 -10 -10 -10 -10 -10 -10 -10 -10 -10 -10 -10 -10 -10 -10 -10 -10 -10 -10 -10 -10 -10 -10 -10 -10 -10 -10 -10 -10 -10
-10 -10 -10 -10 -10 -10 -10 -10 -10 -10 -10 -10 -10 -10 -10 -11 -11 -11 -10 -10 -10 -10 -10 -11 -11 -11 -11 -11 -11 -11 -11 -11 -11 -11 -11 -11 -11 -11 -10 -10 -10 -10 -10
-11 -11 -11 -11 -11 -11 -11 -11 -11 -11 -11 -11 -11 -11 -11 -11 -11 -11 -11 -11 -11 -11 -11 -11 -11 -11 -11 -11 -11 -11 -11 -11 -11 -11 -11 -11 -11 -11 -11 -11 -11 -11 -11
-11 -11 -11 -11 -11 -11 -11 -11 -11 -11 -12 -11 -11 -11 -11 -11 -11 -11 -11 -11 -11 -11 -11 -11 -11 -11 -11 -11 -12 -12 -12 -12 -12 -12 -12 -12 -11 -11 -11 -11 -11 -11 -11
-12 -12 -12 -12 -12 -12 -12 -12 -12 -12 -12 -12 -12 -12 -12 -12 -12 -12 -12 -12 -12 -12 -12 -12 -12 -12 -12 -12 -12 -12 -12 -12 -12 -12 -12 -12 -12 -12 -12 -12 -12 -12 -12
-12 -12 -12 -12 -12 -12 -12 -12 -12 -12 -12 -12 -12 -12 -12 -12 -12 -12 -12 -12 -12 -12 -12 -12 -12 -12 -12 -12 -12 -12 -12 -12 -12 -12 -12 -12 -12 -12 -12 -12 -12 -12 -12
-12 -12 -12 -12 -12 -12 -12 -12 -13 -13 -13 -13 -13 -13 -13 -13 -13 -13 -13 -13 -13 -13 -13 -13 -13 -13 -13 -13 -13 -13 -13 -13 -13 -13 -13 -13 -13 -13 -12 -12 -12 -12 -12
-13 -13 -13 -13 -13 -13 -13 -13 -13 -13 -13 -13 -13 -13 -13 -13 -13 -13 -13 -13 -13 -13 -13 -13 -13 -13 -13 -13 -13 -13 -13 -13 -13 -13 -13 -13 -13 -13 -13 -13 -13 -13 -13
-13 -13 -13 -13 -13 -13 -13 -13 -13 -13 -13 -13 -13 -13 -13 -13 -13 -13 -13 -13 -13 -13 -13 -13 -13 -13 -13 -13 -13 -13 -13 -13 -13 -13 -13 -13 -13 -13 -13 -13 -13 -13 -13
-14 -14 -14 -14 -14 -14 -14 -14 -14 -14 -14 -14 -14 -14 -14 -14 -14 -14 -14 -14 -14 -14 -14 -14 -14 -14 -13 -13 -13 -13 -13 -13 -13 -13 -13 -13 -13 -13 -13 -13 -13 -13 -13
-14 -14 -14 -14 -14 -14 -14 -14 -14 -14 -14 -14 -14 -14 -14 -14 -14 -14 -14 -14 -14 -14 -14 -14 -14 -14 -14 -14 -14 -13 -13 -13 -13 -13 -13 -13 -13 -13 -13 -13 -13 -13 -13
Wind_Speed
3 4 4 4 4 4 5 5 5 4 5 5 5 5 6 6 6 6 7 7 8 8 7 8 8 7 5 5 5 5 6 6 8 7 5 5 6 7 7 8 9 9 9
3 3 3 4 4 4 5 5 5 5 5 5 5 5 5 6 6 7 7 7 8 9 8 8 8 6 8 6 6 6 6 6 7 8 7 6 7 7 8 8 8 8 9
3 2 3 3 4 5 5 5 5 5 5 5 5 6 6 6 7 7 8 8 8 8 8 8 8 8 8 7 7 7 6 6 6 7 7 6 6 6 7 7 8 7 9
3 2 3 4 4 4 4 5 5 5 5 5 5 6 6 6 7 7 7 8 8 8 8 7 8 8 9 8 7 7 7 7 7 7 7 6 6 6 6 6 6 6 6
3 3 3 4 3 3 3 4 4 4 5 5 5 5 6 6 6 7 7 7 8 8 7 7 8 9 9 8 7 7 7 7 7 7 7 7 6 5 5 5 7 7 7
4 3 3 3 3 3 3 3 3 4 4 4 5 5 6 6 7 9 8 7 7 8 8 7 7 9 9 10 10 10 9 9 8 8 7 8 8 7 6 6 6 6 6
4 4 3 3 3 3 3 3 4 4 4 4 5 5 6 6 7 8 9 7 7 7 7 7 6 7 8 7 8 9 9 11 11 10 10 10 9 7 7 8 7 8 8
4 4 4 3 4 4 3 4 4 4 4 4 5 5 5 5 6 7 7 6 6 7 7 7 8 7 7 7 7 7 8 8 9 9 9 9 8 8 8 8 8 9 9
4 4 4 4 4 4 4 4 4 3 4 4 4 4 5 5 6 6 6 4 5 6 6 7 8 7 8 9 8 7 8 7 8 10 12 11 12 11 10 7 7 7 8
5 5 4 4 4 4 4 4 3 3 3 3 3 4 4 4 5 6 6 4 4 5 5 6 8 9 9 9 8 7 8 7 6 7 8 10 10 10 11 9 8 8 7
5 5 4 4 4 4 4 3 3 2 2 2 3 3 3 4 5 6 6 4 4 4 5 5 5 8 9 9 8 7 8 7 7 7 7 7 7 7 7 8 9 8 8
5 4 4 4 3 3 3 3 3 2 2 2 2 2 2 3 4 4 6 5 5 5 5 4 5 7 8 8 7 7 8 7 5 5 6 6 6 6 6 7 9 9 9
4 4 4 4 3 3 3 3 2 2 2 2 2 2 3 3 3 5 5 5 5 4 4 6 6 7 7 6 7 7 6 5 5 5 5 5 5 5 5 5 6 7 8
4 4 4 3 3 3 2 2 2 2 2 2 3 3 3 3 3 3 3 3 3 3 3 3 5 5 4 4 4 4 4 4 4 5 5 5 4 5 5 5 5 5 6
4 4 4 3 3 3 3 3 3 3 4 4 3 4 4 4 4 5 4 3 3 2 2 2 2 2 2 2 3 3 3 3 4 4 5 5 4 5 5 4 5 5 6
4 4 3 3 3 3 3 3 3 4 5 6 6 5 5 6 6 5 5 5 4 3 2 2 2 2 3 3 3 3 3 3 4 4 4 5 5 5 5 5 5 6 6
4 4 4 4 3 3 3 3 3 3 4 5 5 6 5 5 5 5 5 4 4 3 2 2 3 3 3 3 3 4 4 4 4 4 5 5 5 5 5 5 5 5 6
4 5 4 4 4 3 3 3 3 4 4 3 4 5 6 6 5 5 4 3 3 2 2 3 3 3 4 4 4 4 4 4 4 5 5 5 5 5 5 5 5 6 6
4 4 4 4 4 3 3 3 3 4 4 4 4 4 5 5 5 4 3 3 3 3 3 3 3 4 4 4 4 4 4 4 5 5 5 5 5 5 6 6 6 7 7
4 5 5 4 4 3 3 3 3 3 4 4 3 3 3 3 3 3 3 3 3 3 4 4 4 4 4 4 4 4 4 5 5 5 5 5 5 5 6 7 6 6 6
4 4 5 4 4 3 3 3 3 4 3 3 3 4 5 3 3 3 3 3 3 4 4 4 4 4 4 4 4 5 5 5 5 5 5 5 5 5 6 6 6 6 6
3 4 4 4 4 3 3 3 3 3 4 4 3 3 5 3 3 3 3 3 3 4 4 4 4 4 4 4 5 5 5 6 6 5 5 5 5 6 6 6 6 6 6
3 4 4 4 4 4 4 3 3 3 3 3 3 3 3 3 3 3 3 3 3 4 4 4 4 4 5 5 5 6 6 6 6 6 6 6 6 6 6 6 7 7 6
3 4 4 4 3 3 3 3 3 3 3 3 3 3 3 3 3 3 3 3 3 4 4 4 4 5 6 6 6 6 7 8 8 7 8 7 6 6 6 6 7 7 7
3 3 3 3 3 3 3 3 3 3 3 3 3 3 3 3 3 3 3 3 4 4 5 5 5 5 6 7 7 7 9 10 10 8 7 6 7 7 7 7 7 7 6
3 3 3 3 3 3 3 3 3 4 3 3 3 3 3 3 3 4 3 3 4 4 5 5 6 7 7 7 8 9 11 11 11 10 7 5 6 6 6 6 7 6 6
Wind_Direction
257 250 244 240 240 239 238 240 241 241 235 235 237 238 234 233 232 232 233 233 233 235 234 231 233 235 235 231 226 229 235 240 252 258 254 260 261 260 262 263 260 260 260
269 257 250 244 239 237 240 243 242 242 238 235 238 238 240 239 235 232 234 235 234 235 234 233 237 235 235 231 227 230 235 238 246 257 260 258 261 266 265 267 261 258 261
289 270 261 253 245 243 245 247 246 243 242 240 236 237 240 243 241 237 237 237 238 238 237 236 238 235 233 231 232 235 238 242 246 252 260 261 263 265 268 268 265 259 262
301 280 265 259 256 255 252 247 244 243 242 241 238 238 239 242 243 239 237 239 240 241 241 239 242 239 235 234 235 237 239 242 243 246 254 258 261 266 266 267 272 261 263
302 284 277 275 269 264 259 253 250 247 246 246 245 243 242 241 240 241 238 237 239 242 242 241 244 243 241 240 240 239 238 241 244 247 252 256 253 257 259 263 272 272 269
300 292 291 287 280 272 268 262 256 253 252 250 249 247 244 243 243 245 244 238 238 238 240 241 243 240 238 242 247 248 244 243 243 246 251 252 254 257 262 261 268 275 269
300 297 294 289 283 273 270 266 262 259 257 256 253 251 250 249 246 245 246 244 240 240 240 241 244 241 238 239 243 246 251 251 247 247 252 256 261 259 263 263 260 268 272
302 298 295 288 282 278 270 266 268 268 261 259 259 255 256 253 248 249 249 246 245 243 240 239 241 242 238 237 241 245 248 250 248 246 251 258 263 264 260 263 267 271 275
301 296 295 287 281 280 274 269 268 266 266 265 264 260 259 259 250 252 253 253 247 246 244 239 238 240 240 241 240 242 250 254 252 248 254 260 266 270 267 265 261 261 270
303 296 292 284 277 276 278 278 278 269 267 274 278 275 270 270 259 255 255 253 250 249 249 243 238 241 242 243 242 244 250 256 257 259 256 256 258 258 255 247 248 251 261
308 303 299 290 280 276 277 277 277 275 276 277 277 286 284 277 266 257 259 256 250 246 248 248 243 239 245 249 248 250 254 262 260 258 259 259 257 254 250 248 244 244 250
313 310 308 302 293 284 278 280 276 270 271 276 283 294 293 288 282 273 269 270 264 250 249 252 252 248 248 252 252 256 260 264 259 259 260 260 258 257 257 256 254 255 256
315 314 312 309 302 289 276 274 277 271 267 270 268 273 284 289 290 290 288 286 279 262 255 251 251 251 251 251 251 256 259 260 258 258 263 270 271 268 265 263 262 262 265
313 316 315 311 306 298 285 276 275 272 264 261 264 270 277 280 284 291 290 288 280 265 267 259 253 251 249 252 256 255 255 257 259 261 267 273 275 270 263 262 265 266 268
314 313 313 309 304 304 298 289 281 274 267 268 267 269 270 275 282 286 290 292 290 266 266 267 264 257 254 261 267 269 266 261 261 263 267 271 271 270 266 262 261 264 263
314 316 313 309 305 299 300 301 285 279 284 280 278 274 275 278 288 289 290 291 293 275 265 248 249 253 257 262 264 267 268 266 266 266 266 267 267 266 267 265 261 260 262
309 309 307 306 302 297 294 294 301 299 287 284 284 283 280 283 289 294 298 296 284 264 260 251 253 258 261 262 264 268 270 269 266 262 263 264 264 263 263 264 261 262 265
311 307 305 300 298 292 290 290 289 292 297 298 298 295 294 287 289 293 291 286 270 260 259 259 262 263 263 263 264 267 271 270 265 262 261 261 261 262 261 264 263 262 266
313 310 308 306 302 295 292 289 287 286 287 291 296 297 302 299 293 286 280 265 261 264 266 264 266 266 263 263 265 267 269 270 269 265 263 262 262 263 262 261 262 265 265
313 313 315 310 306 298 291 287 285 285 286 287 289 297 305 299 292 287 276 267 263 265 268 268 268 268 266 262 261 261 263 266 267 263 263 262 261 261 260 260 262 263 264
316 317 320 313 306 300 292 288 287 286 286 289 291 293 301 295 285 279 278 278 275 274 275 275 274 271 267 264 261 260 262 265 265 264 264 265 264 264 264 261 264 262 263
314 314 315 314 311 306 299 292 289 289 290 289 295 299 300 295 288 286 285 286 286 282 280 276 274 271 269 265 263 262 262 264 266 264 264 264 262 263 262 259 261 263 263
315 315 316 315 314 311 311 303 296 292 293 293 296 300 301 298 296 292 290 290 290 287 283 277 274 274 276 274 269 263 261 263 266 265 264 264 262 262 262 260 261 262 261
313 312 313 314 314 312 311 310 302 295 293 293 295 296 298 300 299 301 301 301 300 295 291 287 280 277 281 284 280 275 270 271 273 267 262 258 261 263 262 261 262 260 260
314 313 312 311 310 309 308 308 308 302 295 293 292 294 298 300 299 300 302 302 302 298 297 295 287 284 284 285 285 283 281 282 283 279 270 263 263 261 261 263 263 263 260
312 309 307 308 307 306 304 304 305 305 301 300 296 295 295 294 295 295 296 298 301 298 296 293 290 290 290 288 287 287 288 289 289 288 281 271 269 266 264 264 266 260 259
Height
1474 1475 1475 1475 1476 1476 1477 1477 1478 1478 1479 1479 1480 1481 1482 1483 1484 1484 1485 1486 1487 1488 1489 1490 1491 1492 1493 1494 1494 1495 1496 1497 1496 1495 1496 1495 1496 1496 1496 1496 1496 1496 1496
1471 1471 1471 1472 1472 1472 1472 1473 1473 1473 1473 1474 1475 1475 1476 1477 1478 1479 1479 1480 1481 1482 1484 1485 1486 1487 1487 1488 1489 1489 1490 1491 1491 1490 1490 1490 1490 1490 1490 1490 1490 1490 1489
1468 1468 1468 1468 1468 1468 1468 1468 1468 1468 1469 1469 1470 1470 1471 1472 1473 1473 1474 1475 1476 1477 1478 1479 1480 1481 1481 1482 1483 1484 1484 1485 1485 1484 1484 1484 1484 1485 1485 1484 1484 1483 1483
1465 1464 1464 1464 1464 1464 1464 1464 1464 1464 1464 1464 1465 1465 1466 1466 1467 1468 1469 1470 1470 1471 1472 1473 1473 1474 1475 1476 1477 1478 1478 1479 1479 1479 1478 1478 1478 1478 1479 1478 1477 1477 1477
1461 1461 1461 1461 1460 1460 1460 1460 1460 1460 1460 1460 1460 1460 1461 1461 1462 1463 1463 1464 1465 1465 1466 1466 1467 1468 1469 1470 1471 1471 1472 1473 1473 1473 1473 1472 1472 1472 1472 1472 1472 1471 1470
1458 1458 1457 1457 1456 1456 1455 1455 1455 1455 1455 1455 1455 1455 1455 1456 1457 1457 1458 1458 1459 1459 1460 1460 1461 1462 1462 1463 1464 1465 1466 1466 1466 1466 1466 1466 1466 1467 1467 1466 1466 1465 1463
1455 1454 1454 1453 1453 1452 1451 1451 1451 1451 1451 1451 1450 1451 1450 1451 1451 1452 1452 1453 1453 1453 1453 1454 1454 1455 1455 1456 1457 1458 1459 1459 1460 1461 1460 1460 1460 1461 1461 1460 1460 1459 1458
1452 1451 1450 1450 1449 1448 1448 1447 1447 1446 1446 1446 1445 1445 1445 1445 1446 1446 1447 1447 1447 1447 1447 1448 1449 1448 1449 1450 1450 1451 1452 1452 1453 1453 1454 1454 1455 1455 1455 1455 1454 1453 1451
1449 1448 1447 1446 1445 1444 1444 1443 1443 1442 1442 1441 1441 1440 1440 1440 1440 1441 1441 1441 1440 1441 1441 1442 1442 1442 1443 1444 1445 1444 1445 1445 1446 1447 1447 1447 1448 1448 1448 1448 1447 1447 1444
1446 1445 1444 1443 1442 1441 1440 1440 1439 1438 1437 1437 1436 1436 1435 1435 1435 1436 1436 1435 1435 1435 1435 1435 1436 1436 1437 1438 1439 1439 1439 1439 1440 1440 1440 1440 1441 1441 1441 1441 1441 1441 1439
1443 1442 1441 1440 1439 1438 1437 1436 1435 1435 1434 1433 1432 1432 1431 1431 1431 1432 1431 1431 1430 1429 1429 1429 1430 1431 1432 1432 1433 1433 1433 1434 1434 1434 1434 1434 1434 1434 1434 1434 1434 1434 1433
1440 1439 1438 1437 1436 1435 1434 1433 1432 1431 1430 1429 1428 1428 1428 1427 1427 1427 1427 1426 1426 1425 1424 1425 1425 1425 1426 1427 1428 1428 1428 1429 1429 1428 1428 1427 1427 1427 1427 1428 1428 1428 1427
1438 1436 1435 1434 1433 1432 1431 1430 1429 1428 1427 1426 1425 1425 1424 1424 1423 1423 1422 1421 1421 1420 1420 1420 1420 1421 1421 1421 1422 1422 1423 1423 1423 1422 1422 1422 1422 1421 1421 1421 1421 1421 1420
1435 1433 1432 1431 1430 1429 1428 1427 1426 1425 1424 1423 1422 1422 1421 1421 1420 1419 1419 1418 1417 1416 1416 1416 1416 1416 1416 1416 1417 1417 1417 1417 1417 1417 1416 1416 1416 1416 1415 1415 1415 1414 1414
1433 1431 1430 1429 1428 1426 1425 1425 1423 1422 1422 1421 1420 1419 1418 1417 1417 1416 1415 1414 1414 1413 1413 1412 1412 1412 1412 1412 1412 1412 1412 1413 1412 1412 1412 1411 1411 1411 1411 1410 1410 1409 1408
1430 1429 1428 1427 1425 1424 1422 1421 1420 1420 1418 1417 1416 1416 1415 1415 1414 1413 1412 1412 1411 1410 1410 1409 1408 1408 1408 1408 1408 1408 1408 1408 1408 1408 1407 1407 1406 1406 1405 1405 1405 1404 1403
1429 1427 1425 1424 1423 1421 1420 1418 1417 1416 1415 1414 1413 1412 1412 1411 1410 1410 1409 1408 1408 1407 1407 1406 1405 1405 1405 1405 1405 1404 1404 1404 1404 1403 1403 1402 1402 1401 1401 1400 1399 1399 1398
1426 1425 1423 1422 1421 1419 1418 1416 1415 1413 1412 1410 1410 1409 1408 1408 1407 1406 1406 1405 1405 1404 1403 1403 1402 1402 1402 1401 1401 1401 1400 1400 1400 1399 1399 1398 1397 1397 1396 1395 1395 1394 1393
1424 1423 1421 1420 1418 1417 1415 1414 1412 1411 1409 1407 1406 1406 1405 1404 1404 1403 1402 1402 1401 1401 1400 1400 1399 1399 1398 1398 1398 1397 1397 1396 1396 1395 1394 1394 1393 1393 1392 1391 1390 1389 1389
1422 1420 1419 1417 1416 1414 1413 1411 1410 1408 1406 1405 1403 1402 1402 1401 1400 1399 1399 1399 1398 1398 1397 1396 1396 1395 1395 1394 1394 1394 1393 1393 1392 1391 1391 1390 1389 1388 1387 1386 1385 1384 1383
1420 1418 1417 1415 1413 1412 1410 1408 1407 1405 1404 1402 1401 1400 1399 1398 1397 1396 1395 1395 1395 1394 1393 1393 1392 1392 1391 1391 1390 1390 1389 1389 1388 1387 1386 1385 1384 1384 1383 1381 1380 1380 1379
1418 1416 1414 1413 1411 1409 1407 1406 1404 1403 1401 1400 1398 1397 1396 1395 1394 1393 1392 1392 1391 1390 1390 1389 1388 1388 1388 1387 1386 1386 1385 1384 1384 1383 1382 1381 1380 1379 1378 1377 1376 1375 1374
1415 1414 1412 1410 1408 1407 1405 1403 1402 1400 1399 1397 1396 1395 1393 1392 1391 1390 1389 1388 1387 1387 1386 1385 1385 1384 1384 1383 1382 1382 1381 1380 1379 1378 1377 1376 1375 1374 1373 1372 1371 1370 1369
1413 1412 1410 1408 1406 1404 1403 1401 1400 1398 1397 1395 1394 1393 1391 1390 1389 1387 1386 1385 1384 1384 1383 1382 1381 1381 1380 1379 1378 1378 1377 1376 1375 1374 1373 1372 1371 1370 1369 1368 1367 1366 1365
1411 1409 1408 1406 1404 1402 1401 1399 1398 1396 1394 1393 1392 1390 1389 1388 1386 1385 1384 1383 1382 1381 1380 1379 1378 1377 1376 1376 1375 1374 1373 1372 1371 1370 1369 1368 1366 1365 1364 1363 1362 1361 1361
1409 1407 1405 1404 1402 1401 1399 1397 1396 1394 1392 1391 1390 1388 1387 1385 1384 1383 1382 1381 1380 1379 1377 1376 1375 1374 1373 1372 1371 1370 1369 1368 1367 1366 1365 1364 1362 1361 1360 1359 1358 1358 1357